sat.trackr.live / text

‹ back to catalog

IRIDIUM 103

NORAD 41918 · 2017-003B

PAYLOAD ACTIVE UNKNOWN

§ Identity

Operator
Country
US
Launch date
2017-01-14
Launch site
AFWTR
Launch vehicle
Mass (kg)
RCS (m²)
2.39

Purposes: comms

External: N2YO · Heavens-Above · Gunter

§ Orbital elements

Epoch: 2026-05-25T03:05:42.316800Z

Period
100.40 min
Inclination
86.3949°
Eccentricity
0.0002590
Mean motion
14.34217843 rev/d
Perigee alt
775.8 km
Apogee alt
779.5 km
Semi-major
7,155.8 km
B*
8.1330e-6
RAAN
98.0950°
Arg perigee
85.6032°
Mean anomaly
274.5459°
Rev number
48,992

§ Raw data

IRIDIUM 1031 41918U 17003B   26145.12896200  .00000043  00000+0  81330-5 0  99962 41918  86.3949  98.0950 0002590  85.6032 274.5459 14.34217843489920

JSON: /api/v1/satellites/41918 · /tle

For live sub-satellite position, see the globe view (requires WebGL).

§ Visibility from observer

Set your observer location to see the next 7 days of passes ≥ 10°. The values pass through the URL so the page stays shareable.

No JS? Fill the form by hand. The geolocation button needs JavaScript.